THOR ABLESTAR DEB, 3592

Orbit data source: Space-Track

THOR ABLESTAR DEB, 3592 is space debris in LEO originally from a launch on Thu, 24 Jun 1965 UTC launched from the Air Force Western Test Range (AFWTR). Debris objects in space refer to the collection of defunct objects orbiting the Earth. Examples of debris include non-operational satellites, rocket bodies, and fragments generated from explosions, collisions, or faulty payload assembly.

Loading next visibility...
Identifier
3592, 1965-048F
Orbit
LEO
Country
Flag of USUS
Related business
Manufacturer
Unknown
Mission
Spacecraft
Bus & Motor
Unknown
Mass
Unknown
Launch date (UTC)
Icon of a cake. It is the launch day of the satellite!1965-06-24 (61 years ago)
Launch vehicle
Unknown
Launch site
Air Force Western Test Range (AFWTR)
Object type
Payload
Rocket body
Debris
Shape & HBR
Unknown shape, 0.1 m
Radar Cross Section
Medium (>0.1 m² and <1 m²)

Expand to show TLE details & history
Last TLE update: 23 hours ago

TLE from 23 hours ago
0 THOR ABLESTAR DEB
1 03592U 65048F   26174.32201382  .00000228  00000-0  27734-3 0  9991
2 03592  89.8769 287.6423 0058279 304.0171 111.1440 13.62719695 20796
Epoch: 2026-06-23T07:43Z
TLE epoch observation values (Epoch: 2026-06-23T07:43:41.994Z)
Latitude
55.87595°
Longitude
-99.5972°
Altitude
1,050.994 km
Speed
7.324 km/s
True Right ascension
19h 11m 17s
True Declination
55° 43' 21"
Sunlit
Object was in daylight at epoch
Visualization orbit readout
Latitude
Unknown
Longitude
Unknown
Altitude
Unknown
Speed
Unknown
Apparent Right ascension
Unknown
Apparent Declination
Unknown
Sunlit
N/A
Visualization observer readout
Local Sidereal Time
17:51:16
Azimuth
Unknown
Elevation
Unknown
Doppler factor
Unknown
Orbital elements
Apogee altitude
1,065.988 km
Perigee altitude
979.723 km
Semi-major axis
7,400.993 km
Eccentricity
0.00583
Inclination
89.8769°
RAAN
287.6423°
Arg. of periapsis
304.0171°
True anomaly
111.76522°
Mean anomaly
111.144°
Eccentric anomaly
111.45478°
Mean motion
3.40885 °/min
Orbital period
105.61 mins
BSTAR
0.00027734
Loading maneuver chart data...
Computing Atmospheric mass density...

Documentation

Showing up to 5 results
|